Regional Weather Roundup
Issued by NWS State College, PA

Home | Current Version | Previous Version | Text Only | Print | Product List | Glossary On
Versions: 1 2 3 4 5 6 7 8 9 10 11 12 13 14 15 16 17 18 19 20 21 22 23 24 25 26 27 28 29 30 31 32 33 34 35 36 37 38 39 40 41 42 43 44 45 46 47 48 49 50
000
ASUS41 KCTP 302103
RWRCTP

REGIONAL WEATHER ROUNDUP
NATIONAL WEATHER SERVICE STATE COLLEGE PA
500 PM EDT MON MAR 30 2015

Note: "fair" indicates few or no clouds below 12,000 feet with no
significant weather and/or obstructions to visibility.

* = STATION THAT DOES NOT REPORT PRECIPITATION /E.G. RAIN...SNOW...ETC/
    THUNDER OR FOG.

PAZ002>004-007>009-013>016-020>023-029>032-302200-
WESTERN PENNSYLVANIA

CITY           SKY/WX    TMP DP  RH WIND       PRES   REMARKS
ERIE           CLOUDY    47  22  37 W23G39    29.85S
MEADVILLE      PTSUNNY   47  23  38 W20G32    29.85F
FRANKLIN*      CLOUDY    45  21  39 W15G29    29.87F
NEW CASTLE     FAIR      50  24  36 W12G22    29.91S
BEAVER COUNTY  CLOUDY    50  23  34 W9G26     29.91S
BUTLER*        PTSUNNY   48  21  34 NW13G23   29.92S
PITTSBURGH INT PTSUNNY   52  22  30 W22       29.92F
PITTSBURGH     PTSUNNY   50  15  24 W18G30    29.90S
INDIANA*       CLOUDY    48  21  34 W18G28    29.92S
LATROBE        PTSUNNY   50  23  34 W13G18    29.93R
WASHINGTON CO* PTSUNNY   52  21  30 W14G28    29.95F
$$

PAZ004>006-010>012-017>019-024>028-033>037-041-042-045-046-049>053-302200-
CENTRAL PENNSYLVANIA

CITY           SKY/WX    TMP DP  RH WIND       PRES   REMARKS
BRADFORD       LGT RAIN  40  24  53 W24G33    29.80R
DUBOIS         MOSUNNY   49  21  33 W18G32    29.82F
CLEARFIELD     PTSUNNY   47  20  34 W17G26    29.83F
JOHNSTOWN      PTSUNNY   43  21  41 W17G30    29.85S
ALTOONA        CLOUDY    48  22  35 NW18G32   29.86R
STATE COLLEGE  PTSUNNY   48  21  34 NW20G32   29.84S
WILLIAMSPORT   PTSUNNY   51  22  31 W16G25    29.80S
SELINSGROVE    PTSUNNY   53  26  35 W10G24    29.82F
FT INDIANTOWN  MOSUNNY   52  25  35 W18G24    29.82S
CAPITAL CITY   PTSUNNY   53  22  29 W15G29    29.83S
HARRISBURG     PTSUNNY   53  25  33 NW20G31   29.83S
YORK           MOSUNNY   56  25  30 W16G28    29.83S
$$

PAZ038>040-043-044-047-048-054-055-060>062-067>071-302200-
EASTERN PENNSYLVANIA

CITY           SKY/WX    TMP DP  RH WIND       PRES   REMARKS
SCRANTON       CLOUDY    50  25  37 W16G31    29.76F
MOUNT POCONO   MOSUNNY   43  22  43 W24G35    29.74S
ALLENTOWN      PTSUNNY   54  25  32 W20G30    29.79F
QUAKERTOWN*    MOCLDY    50  27  40 W15G24    29.81S
READING        MOSUNNY   55  24  30 W22G29    29.80F
LANCASTER      PTSUNNY   54  24  31 W21G33    29.81F
COATESVILLE    PTCLDY    54  27  35 NW20G31   29.82S
POTTSTOWN      PTSUNNY   53  25  33 W13G31    29.82S
BLUE BELL      MOSUNNY   54  30  40 W13G24    29.81R
DOYLESTOWN     PTSUNNY   53  26  35 NW12G24   29.79S
WILLOW GROVE   NOT AVBL
NORTH PHILA    CLOUDY    55  24  30 NW16      29.82S
PHILADELPHIA   PTSUNNY   56  25  30 NW24G30   29.82S
$$


USA.gov is the U.S. government's official web portal to all federal, state and local government web resources and services.